Caldwell, ID

8:40 PM MDT on September 20, 2017 (GMT -0600)
Caldwell Industrial

Weather History for KEUL - May, 2013

Change the Weather History Date:

Saturday, May 11, 2013

  Actual Average (KBOI) Record (KBOI)
Temperature  
Mean Temperature 70 °F -  
Max Temperature 89 °F 67 °F 93 °F (1941)
Min Temperature 51 °F 41 °F 25 °F (1916)
Cooling Degree Days 5    
Growing Degree Days 20 (Base 50)    
Moisture  
Dew Point 42 °F    
Average Humidity 40    
Maximum Humidity 67    
Minimum Humidity 17    
Precipitation  
Precipitation 0.00 in - - ()
Sea Level Pressure  
Sea Level Pressure 30.15 in    
Wind  
Wind Speed 6 mph (ESE)    
Max Wind Speed 12 mph    
Max Gust Speed -    
Visibility 10 miles    
Events      
Averages and records for this station are not official NWS values.
T = Trace of Precipitation, MM = Missing Value Source: NWS Daily Summary

Daily Weather History Graph

Daily Weather History Graph

Search for Another Location

Airport or City:

Trip Planner

Search our weather history database for the weather conditions in past years. The results will help you decide how hot, cold, wet, or windy it might be!

Date:

Astronomy

May. 11, 2013 Rise Set
Actual Time 6:25 AM MDT 9:00 PM MDT
Civil Twilight 5:52 AM MDT 9:33 PM MDT
Nautical Twilight 5:12 AM MDT 10:14 PM MDT
Astronomical Twilight 4:25 AM MDT 11:01 PM MDT
Moon 7:35 AM MDT (5/11) 10:46 PM MDT (5/11)
Length of Visible Light 15h 40m
Length of Day
14h 35m
Waxing Crescent, 3% of the Moon is Illuminated
May 11
Waxing Crescent
May 17
First Quarter
May 24
Full
May 31
Last Quarter
Jun 8
New

Hourly Weather History & Observations

Time (MDT) Temp. Dew Point Humidity Pressure Visibility Wind Dir Wind Speed Gust Speed Precip Events Conditions
12:15 AM 59.0 °F 39.2 °F 48% 30.16 in 10.0 mi ESE 10.4 mph - N/A   Clear
12:35 AM 60.8 °F 39.2 °F 45% 30.16 in 10.0 mi East 8.1 mph - N/A   Clear
12:55 AM 57.2 °F 39.2 °F 51% 30.16 in 10.0 mi ESE 8.1 mph - N/A   Clear
1:15 AM 55.4 °F 41.0 °F 58% 30.17 in 10.0 mi Calm Calm - N/A   Clear
1:35 AM 55.4 °F 39.2 °F 54% 30.17 in 10.0 mi North 4.6 mph - N/A   Clear
1:55 AM 55.4 °F 39.2 °F 54% 30.17 in 10.0 mi NE 4.6 mph - N/A   Clear
2:15 AM 55.4 °F 39.2 °F 54% 30.17 in 10.0 mi Calm Calm - N/A   Clear
2:35 AM 53.6 °F 39.2 °F 58% 30.17 in 10.0 mi Calm Calm - N/A   Clear
2:55 AM 55.4 °F 39.2 °F 54% 30.18 in 10.0 mi ESE 5.8 mph - N/A   Clear
3:15 AM 57.2 °F 39.2 °F 51% 30.18 in 10.0 mi ESE 8.1 mph - N/A   Clear
3:35 AM 53.6 °F 39.2 °F 58% 30.18 in 10.0 mi ESE 9.2 mph - N/A   Clear
3:55 AM 53.6 °F 37.4 °F 54% 30.18 in 10.0 mi ESE 6.9 mph - N/A   Clear
4:15 AM 53.6 °F 37.4 °F 54% 30.19 in 10.0 mi SE 3.5 mph - N/A   Clear
4:35 AM 55.4 °F 37.4 °F 51% 30.19 in 10.0 mi South 4.6 mph - N/A   Clear
4:55 AM 55.4 °F 37.4 °F 51% 30.19 in 10.0 mi South 4.6 mph - N/A   Clear
5:15 AM 55.4 °F 37.4 °F 51% 30.19 in 10.0 mi South 4.6 mph - N/A   Clear
5:35 AM 53.6 °F 37.4 °F 54% 30.19 in 10.0 mi South 3.5 mph - N/A   Clear
5:55 AM 55.4 °F 37.4 °F 51% 30.20 in 10.0 mi SSE 4.6 mph - N/A   Clear
6:15 AM 51.8 °F 39.2 °F 62% 30.19 in 10.0 mi SE 4.6 mph - N/A   Clear
6:35 AM 53.6 °F 37.4 °F 54% 30.20 in 10.0 mi ESE 5.8 mph - N/A   Clear
6:55 AM 51.8 °F 39.2 °F 62% 30.20 in 10.0 mi SE 4.6 mph - N/A   Clear
7:15 AM 51.8 °F 39.2 °F 62% 30.21 in 10.0 mi ESE 3.5 mph - N/A   Clear
7:35 AM 51.8 °F 41.0 °F 67% 30.21 in 10.0 mi ENE 5.8 mph - N/A   Clear
7:55 AM 55.4 °F 41.0 °F 58% 30.21 in 10.0 mi East 4.6 mph - N/A   Clear
8:15 AM 57.2 °F 42.8 °F 59% 30.21 in 10.0 mi East 3.5 mph - N/A   Clear
8:35 AM 60.8 °F 44.6 °F 55% 30.21 in 10.0 mi SE 4.6 mph - N/A   Clear
8:55 AM 62.6 °F 42.8 °F 48% 30.22 in 10.0 mi SE 3.5 mph - N/A   Clear
9:15 AM 64.4 °F 44.6 °F 49% 30.21 in 10.0 mi SE 5.8 mph - N/A   Clear
9:35 AM 66.2 °F 44.6 °F 46% 30.21 in 10.0 mi SE 6.9 mph - N/A   Clear
9:55 AM 69.8 °F 46.4 °F 43% 30.21 in 10.0 mi ESE 9.2 mph - N/A   Clear
10:15 AM 71.6 °F 46.4 °F 41% 30.21 in 10.0 mi SE 6.9 mph - N/A   Clear
10:35 AM 71.6 °F 46.4 °F 41% 30.21 in 10.0 mi SE 8.1 mph - N/A   Clear
10:55 AM 75.2 °F 46.4 °F 36% 30.21 in 10.0 mi SE 11.5 mph - N/A   Clear
11:35 AM 78.8 °F 46.4 °F 32% 30.20 in 10.0 mi SE 11.5 mph - N/A   Clear
11:55 AM 78.8 °F 46.4 °F 32% 30.20 in 10.0 mi SE 11.5 mph - N/A   Clear
12:15 PM 80.6 °F 44.6 °F 28% 30.19 in 10.0 mi SE 8.1 mph - N/A   Clear
12:35 PM 82.4 °F 42.8 °F 25% 30.19 in 10.0 mi SSE 6.9 mph - N/A   Clear
12:55 PM 84.2 °F 42.8 °F 23% 30.18 in 10.0 mi ESE 6.9 mph - N/A   Clear
1:15 PM 84.2 °F 41.0 °F 22% 30.17 in 10.0 mi ESE 4.6 mph - N/A   Clear
1:35 PM 84.2 °F 42.8 °F 23% 30.16 in 10.0 mi East 6.9 mph - N/A   Clear
1:55 PM 86.0 °F 44.6 °F 23% 30.16 in 10.0 mi East 6.9 mph - N/A   Clear
2:15 PM 87.8 °F 42.8 °F 21% 30.15 in 10.0 mi East 8.1 mph - N/A   Clear
2:35 PM 87.8 °F 44.6 °F 22% 30.14 in 10.0 mi East 5.8 mph - N/A   Clear
2:55 PM 87.8 °F 39.2 °F 18% 30.14 in 10.0 mi Calm Calm - N/A   Clear
4:15 PM 89.6 °F 41.0 °F 18% 30.10 in 10.0 mi ENE 8.1 mph - N/A   Clear
4:35 PM 89.6 °F 39.2 °F 17% 30.10 in 10.0 mi ENE 4.6 mph - N/A   Clear
4:55 PM 89.6 °F 39.2 °F 17% 30.09 in 10.0 mi Calm Calm - N/A   Clear
5:15 PM 89.6 °F 44.6 °F 21% 30.08 in 10.0 mi NE 5.8 mph - N/A   Clear
5:35 PM 89.6 °F 42.8 °F 20% 30.08 in 10.0 mi ENE 8.1 mph - N/A   Clear
5:55 PM 89.6 °F 39.2 °F 17% 30.08 in 10.0 mi ENE 6.9 mph - N/A   Clear
6:15 PM 89.6 °F 39.2 °F 17% 30.07 in 10.0 mi ENE 4.6 mph - N/A   Clear
6:35 PM 87.8 °F 42.8 °F 21% 30.07 in 10.0 mi East 4.6 mph - N/A   Clear
6:55 PM 86.0 °F 46.4 °F 25% 30.06 in 10.0 mi East 4.6 mph - N/A   Clear
7:15 PM 87.8 °F 41.0 °F 19% 30.06 in 10.0 mi ENE 3.5 mph - N/A   Clear
7:35 PM 86.0 °F 48.2 °F 27% 30.05 in 10.0 mi ENE 4.6 mph - N/A   Clear
8:15 PM 82.4 °F 51.8 °F 35% 30.05 in 10.0 mi NNE 9.2 mph - N/A   Clear
8:35 PM 78.8 °F 46.4 °F 32% 30.05 in 10.0 mi NE 4.6 mph - N/A   Clear
8:55 PM 78.8 °F 46.4 °F 32% 30.05 in 10.0 mi NE 5.8 mph - N/A   Clear
9:15 PM 73.4 °F 46.4 °F 38% 30.05 in 10.0 mi ENE 5.8 mph - N/A   Clear
9:35 PM 73.4 °F 44.6 °F 36% 30.05 in 10.0 mi East 5.8 mph - N/A   Clear
9:55 PM 73.4 °F 42.8 °F 33% 30.06 in 10.0 mi ENE 5.8 mph - N/A   Clear
10:15 PM 71.6 °F 44.6 °F 38% 30.06 in 10.0 mi Calm Calm - N/A   Clear
10:35 PM 73.4 °F 42.8 °F 33% 30.07 in 10.0 mi Calm Calm - N/A   Clear
10:55 PM 73.4 °F 42.8 °F 33% 30.07 in 10.0 mi Calm Calm - N/A   Clear
11:15 PM 71.6 °F 42.8 °F 35% 30.07 in 10.0 mi Calm Calm - N/A   Clear
11:35 PM 66.2 °F 42.8 °F 43% 30.08 in 10.0 mi SSE 5.8 mph - N/A   Clear
11:55 PM 66.2 °F 44.6 °F 46% 30.07 in 10.0 mi SSE 4.6 mph - N/A   Clear